TimeMDT,TemperatureF,Dew PointF,Humidity,Sea Level PressureIn,VisibilityMPH,Wind Direction,Wind SpeedMPH,Gust SpeedMPH,PrecipitationIn,Events,Conditions,WindDirDegrees,DateUTC
12:53 AM,51.1,37.0,59,30.02,10.0,South,3.5,-,N/A,,Clear,190,2013-06-16 06:53:00
1:53 AM,46.0,37.9,73,30.04,10.0,SW,6.9,-,N/A,,Clear,220,2013-06-16 07:53:00
2:53 AM,43.0,37.9,82,30.06,10.0,NW,5.8,-,N/A,,Clear,320,2013-06-16 08:53:00
3:53 AM,44.1,37.0,76,30.06,10.0,NW,4.6,-,N/A,,Clear,310,2013-06-16 09:53:00
4:53 AM,42.1,37.0,82,30.06,10.0,NW,3.5,-,N/A,,Clear,320,2013-06-16 10:53:00
5:53 AM,41.0,37.0,86,30.09,10.0,WSW,6.9,-,N/A,,Clear,250,2013-06-16 11:53:00
6:53 AM,48.0,42.1,80,30.08,10.0,WSW,3.5,-,N/A,,Clear,240,2013-06-16 12:53:00
7:53 AM,52.0,43.0,71,30.10,10.0,West,4.6,-,N/A,,Clear,260,2013-06-16 13:53:00
8:53 AM,57.9,46.0,65,30.12,10.0,Variable,3.5,-,N/A,,Clear,0,2013-06-16 14:53:00
9:53 AM,62.1,46.0,56,30.13,10.0,NNW,6.9,-,N/A,,Clear,340,2013-06-16 15:53:00
10:53 AM,64.9,45.0,48,30.12,10.0,NNE,4.6,-,N/A,,Clear,30,2013-06-16 16:53:00
11:53 AM,66.0,45.0,47,30.11,10.0,East,3.5,-,N/A,,Scattered Clouds,90,2013-06-16 17:53:00
12:53 PM,66.9,44.1,44,30.12,10.0,Variable,4.6,-,N/A,,Partly Cloudy,0,2013-06-16 18:53:00
1:53 PM,69.1,44.1,40,30.11,10.0,North,9.2,-,N/A,,Partly Cloudy,10,2013-06-16 19:53:00
2:53 PM,71.1,45.0,39,30.10,10.0,ENE,6.9,-,N/A,,Clear,70,2013-06-16 20:53:00
3:53 PM,71.1,44.1,38,30.09,10.0,Variable,3.5,-,N/A,,Clear,0,2013-06-16 21:53:00
4:53 PM,69.1,44.1,40,30.10,10.0,NE,5.8,-,N/A,,Partly Cloudy,50,2013-06-16 22:53:00
5:53 PM,72.0,45.0,38,30.09,10.0,North,8.1,-,N/A,,Clear,10,2013-06-16 23:53:00
6:53 PM,71.1,44.1,38,30.08,10.0,NE,6.9,-,N/A,,Clear,50,2013-06-17 00:53:00
7:53 PM,68.0,43.0,40,30.09,10.0,NE,10.4,-,N/A,,Clear,40,2013-06-17 01:53:00
8:53 PM,64.9,43.0,45,30.09,10.0,NE,10.4,-,N/A,,Clear,50,2013-06-17 02:53:00
9:53 PM,61.0,43.0,52,30.10,10.0,ENE,8.1,-,N/A,,Clear,60,2013-06-17 03:53:00
10:53 PM,57.0,44.1,62,30.12,10.0,East,6.9,-,N/A,,Clear,90,2013-06-17 04:53:00
11:53 PM,55.9,44.1,64,30.12,10.0,East,9.2,-,N/A,,Clear,80,2013-06-17 05:53:00